This is the latest recevied weather packets stored in our database for station/object W0VI. If no packets are shown the sender has not sent any weather packets the latest 10 day(s).
| Time | Temp. | Humidity | Pressure | Rain* | Wind** | Luminosity | Snow |
|---|---|---|---|---|---|---|---|
| 1787537162 | 20° C | 65% | 1017.3 hPa | 0 mm | - | 0 W/m² | - |
| 1787536857 | 20° C | 65% | 1017.3 hPa | 0 mm | - | 0 W/m² | - |
| 1787536552 | 20° C | 66% | 1017.4 hPa | 0 mm | - | 0 W/m² | - |
| 1787536248 | 20° C | 66% | 1017.2 hPa | 0 mm | - | 0 W/m² | - |
| 1787535944 | 20° C | 64% | 1017.3 hPa | 0 mm | - | 0 W/m² | - |
| 1787535643 | 20° C | 66% | 1017.3 hPa | 0 mm | - | 0 W/m² | - |
| 1787535339 | 20.56° C | 65% | 1017.2 hPa | 0 mm | - | 0 W/m² | - |
| 1787535034 | 20.56° C | 63% | 1017.2 hPa | 0 mm | - | 0 W/m² | - |
| 1787534733 | 21.11° C | 63% | 1017.1 hPa | 0 mm | - | 0 W/m² | - |
| 1787534432 | 21.11° C | 62% | 1017.1 hPa | 0 mm | - | 0 W/m² | - |
| 1787534127 | 21.11° C | 62% | 1017.1 hPa | 0 mm | - | 0 W/m² | - |
| 1787533823 | 21.67° C | 61% | 1017.2 hPa | 0 mm | - | 1 W/m² | - |
| 1787533519 | 21.67° C | 59% | 1016.9 hPa | 0 mm | - | 2 W/m² | - |
| 1787533215 | 22.22° C | 57% | 1016.8 hPa | 0 mm | - | 6 W/m² | - |
| 1787532910 | 22.78° C | 56% | 1016.9 hPa | 0 mm | - | 9 W/m² | - |
| 1787532606 | 23.33° C | 54% | 1016.7 hPa | 0 mm | - | 10 W/m² | - |
| 1787532301 | 23.89° C | 53% | 1017 hPa | 0 mm | - | 12 W/m² | - |
| 1787531996 | 24.44° C | 51% | 1016.9 hPa | 0 mm | - | 17 W/m² | - |
| 1787531692 | 25° C | 49% | 1016.9 hPa | 0 mm | - | 23 W/m² | - |
| 1787531388 | 25° C | 49% | 1016.8 hPa | 0 mm | - | 27 W/m² | - |
| 1787531084 | 25° C | 49% | 1016.7 hPa | 0 mm | - | 30 W/m² | - |
| 1787530779 | 25.56° C | 48% | 1016.9 hPa | 0 mm | - | 37 W/m² | - |
| 1787530473 | 25.56° C | 47% | 1016.7 hPa | 0 mm | - | 41 W/m² | - |
| 1787530169 | 25.56° C | 48% | 1016.6 hPa | 0 mm | - | 47 W/m² | - |
| 1787529865 | 25° C | 48% | 1016.9 hPa | 0 mm | - | 52 W/m² | - |
* Rain latest hour (hover to see other rain measurements)
** Current wind speed in m/s (hover to see current wind gust speed)